• In Germany
  • List of Countries
  • For 7 days
  • Water Temperature
  • Satellite Maps
  • Weather Map
  • Weather Widgets
  • user-avatar
    Login

    Hourly Weather Novosretenka

    Today, 23 April, Monday

    Time Temperature Precipitation Wind Pressure Humidity
    00:00 +7°C° 0 mm 2 mps 702 mmHg 39%
    01:00 +7°C° 0 mm 3 mps 702 mmHg 40%
    02:00 +5°C° 0 mm 3 mps 702 mmHg 41%
    03:00 +5°C° 0 mm 3 mps 702 mmHg 42%
    04:00 +5°C° 0 mm 3 mps 702 mmHg 43%
    05:00 +6°C° 0 mm 4 mps 702 mmHg 39%
    06:00 +8°C° 0 mm 4 mps 702 mmHg 36%
    07:00 +10°C° 0 mm 5 mps 702 mmHg 33%
    08:00 +13°C° 0 mm 5 mps 702 mmHg 30%
    09:00 +15°C° 0 mm 5 mps 702 mmHg 28%
    10:00 +17°C° 0 mm 6 mps 702 mmHg 25%
    11:00 +19°C° 0 mm 6 mps 702 mmHg 23%
    12:00 +20°C° 0 mm 5 mps 702 mmHg 21%
    13:00 +20°C° 0 mm 5 mps 702 mmHg 19%
    14:00 +21°C° 0 mm 5 mps 701 mmHg 19%
    15:00 +21°C° 0 mm 4 mps 701 mmHg 19%
    16:00 +21°C° 0 mm 4 mps 701 mmHg 18%
    17:00 +18°C° 0 mm 3 mps 701 mmHg 23%
    18:00 +16°C° 0 mm 2 mps 700 mmHg 27%
    19:00 +14°C° 0 mm 1 mps 700 mmHg 31%
    20:00 +13°C° 0 mm 1 mps 700 mmHg 33%
    21:00 +12°C° 0 mm 2 mps 700 mmHg 35%
    22:00 +10°C° 0 mm 2 mps 700 mmHg 37%
    23:00 +10°C° 0 mm 2 mps 700 mmHg 39%

    Tomorrow, 24 April, Tuesday

    Time Temperature Precipitation Wind Pressure Humidity
    00:00 +9°C° 0 mm 2 mps 700 mmHg 41%
    01:00 +8°C° 0 mm 2 mps 700 mmHg 42%
    02:00 +8°C° 0 mm 2 mps 700 mmHg 43%
    03:00 +8°C° 0 mm 2 mps 699 mmHg 44%
    04:00 +7°C° 0 mm 2 mps 699 mmHg 46%
    05:00 +9°C° 0 mm 2 mps 699 mmHg 42%
    06:00 +12°C° 0 mm 2 mps 699 mmHg 38%
    07:00 +12°C° 0 mm 3 mps 699 mmHg 34%
    08:00 +16°C° 0 mm 3 mps 698 mmHg 29%
    09:00 +18°C° 0 mm 4 mps 698 mmHg 24%
    10:00 +21°C° 0 mm 5 mps 698 mmHg 19%
    11:00 +22°C° 0 mm 5 mps 697 mmHg 17%
    12:00 +23°C° 0 mm 5 mps 696 mmHg 15%
    13:00 +26°C° 0 mm 6 mps 696 mmHg 13%
    14:00 +26°C° 0 mm 6 mps 695 mmHg 14%
    15:00 +26°C° 0 mm 6 mps 695 mmHg 14%
    16:00 +26°C° 0 mm 6 mps 694 mmHg 14%
    17:00 +23°C° 0 mm 5 mps 694 mmHg 18%
    18:00 +20°C° 0 mm 4 mps 693 mmHg 22%
    19:00 +18°C° 0 mm 3 mps 693 mmHg 25%
    20:00 +17°C° 0 mm 2 mps 693 mmHg 27%
    21:00 +15°C° 0 mm 2 mps 693 mmHg 29%
    22:00 +14°C° 0 mm 1 mps 693 mmHg 31%
    23:00 +13°C° 0 mm 2 mps 694 mmHg 33%

    Day after tomorrow, 25 April, Wednesday

    Time Temperature Precipitation Wind Pressure Humidity
    00:00 +13°C° 0 mm 2 mps 694 mmHg 35%
    01:00 +12°C° 0 mm 2 mps 694 mmHg 37%
    02:00 +10°C° 0 mm 2 mps 695 mmHg 45%
    03:00 +9°C° 0 mm 2 mps 695 mmHg 53%
    04:00 +8°C° 0 mm 2 mps 695 mmHg 60%
    05:00 +9°C° 0 mm 3 mps 696 mmHg 61%
    06:00 +10°C° 0 mm 3 mps 697 mmHg 61%
    07:00 +11°C° 0 mm 3 mps 697 mmHg 62%
    08:00 +12°C° 0 mm 3 mps 697 mmHg 56%
    09:00 +13°C° 0 mm 4 mps 698 mmHg 50%
    10:00 +14°C° 0 mm 4 mps 698 mmHg 45%
    11:00 +15°C° 0 mm 4 mps 698 mmHg 41%
    12:00 +17°C° 0 mm 4 mps 698 mmHg 37%
    13:00 +18°C° 0 mm 4 mps 698 mmHg 33%
    14:00 +18°C° 0 mm 3 mps 698 mmHg 32%
    15:00 +18°C° 0 mm 3 mps 697 mmHg 31%
    16:00 +18°C° 0 mm 3 mps 697 mmHg 31%
    17:00 +17°C° 0 mm 2 mps 697 mmHg 36%
    18:00 +15°C° 0 mm 1 mps 697 mmHg 41%
    19:00 +13°C° 0 mm 1 mps 696 mmHg 46%
    20:00 +12°C° 0 mm 1 mps 697 mmHg 47%
    21:00 +11°C° 0 mm 1 mps 697 mmHg 49%
    22:00 +9°C° 0 mm 2 mps 697 mmHg 51%
    23:00 +9°C° 0 mm 2 mps 697 mmHg 52%

    26 April, Thursday

    Time Temperature Precipitation Wind Pressure Humidity
    00:00 +9°C° 0 mm 2 mps 697 mmHg 53%
    01:00 +8°C° 0 mm 2 mps 696 mmHg 54%
    02:00 +8°C° 0 mm 2 mps 696 mmHg 55%
    03:00 +8°C° 0 mm 2 mps 696 mmHg 55%
    04:00 +8°C° 0 mm 2 mps 696 mmHg 56%
    05:00 +10°C° 0 mm 3 mps 697 mmHg 52%
    06:00 +11°C° 0 mm 3 mps 697 mmHg 48%
    07:00 +13°C° 0 mm 3 mps 697 mmHg 44%
    08:00 +16°C° 0 mm 3 mps 697 mmHg 40%
    09:00 +18°C° 0 mm 3 mps 698 mmHg 36%
    10:00 +20°C° 0 mm 3 mps 698 mmHg 32%
    11:00 +21°C° 0 mm 3 mps 698 mmHg 31%
    12:00 +22°C° 0 mm 3 mps 697 mmHg 30%
    13:00 +25°C° 0 mm 3 mps 697 mmHg 29%
    14:00 +24°C° 0 mm 3 mps 697 mmHg 29%
    15:00 +24°C° 0 mm 3 mps 697 mmHg 30%
    16:00 +24°C° 0 mm 3 mps 697 mmHg 30%
    17:00 +21°C° 0 mm 3 mps 697 mmHg 35%
    18:00 +19°C° 0 mm 2 mps 696 mmHg 41%
    19:00 +17°C° 0 mm 2 mps 696 mmHg 46%
    20:00 +16°C° 0 mm 2 mps 696 mmHg 49%
    21:00 +15°C° 0 mm 2 mps 696 mmHg 53%
    22:00 +13°C° 0 mm 1 mps 695 mmHg 57%
    23:00 +13°C° 0 mm 1 mps 695 mmHg 58%

    27 April, Friday

    Time Temperature Precipitation Wind Pressure Humidity
    00:00 +12°C° 0 mm 1 mps 695 mmHg 59%
    01:00 +12°C° 0 mm 1 mps 694 mmHg 60%
    02:00 +11°C° 0 mm 1 mps 694 mmHg 62%
    03:00 +11°C° 0 mm 1 mps 694 mmHg 63%
    04:00 +11°C° 0 mm 1 mps 694 mmHg 64%
    05:00 +12°C° 0 mm 2 mps 694 mmHg 60%
    06:00 +13°C° 0 mm 2 mps 694 mmHg 56%
    07:00 +14°C° 0 mm 2 mps 694 mmHg 51%
    08:00 +16°C° 0 mm 3 mps 695 mmHg 47%
    09:00 +18°C° 0 mm 3 mps 695 mmHg 43%
    10:00 +20°C° 0 mm 4 mps 695 mmHg 38%
    11:00 +20°C° 0 mm 4 mps 695 mmHg 37%
    12:00 +21°C° 0 mm 4 mps 694 mmHg 36%
    13:00 +21°C° 0 mm 5 mps 694 mmHg 35%
    14:00 +20°C° 0 mm 5 mps 694 mmHg 37%
    15:00 +19°C° 0 mm 6 mps 694 mmHg 40%
    16:00 +17°C° 0 mm 7 mps 695 mmHg 42%
    17:00 +15°C° 0 mm 6 mps 695 mmHg 47%
    18:00 +13°C° 0 mm 5 mps 695 mmHg 51%
    19:00 +12°C° 0 mm 3 mps 696 mmHg 56%
    20:00 +11°C° 0 mm 3 mps 696 mmHg 62%
    21:00 +10°C° 0 mm 2 mps 696 mmHg 68%
    22:00 +9°C° 0 mm 2 mps 697 mmHg 74%
    23:00 +9°C° 0 mm 2 mps 697 mmHg 78%

    28 April, Saturday

    Time Temperature Precipitation Wind Pressure Humidity
    00:00 +8°C° 0 mm 2 mps 697 mmHg 82%
    01:00 +9°C° 0 mm 1 mps 697 mmHg 86%
    02:00 +8°C° 0 mm 1 mps 697 mmHg 87%
    03:00 +8°C° 0 mm 1 mps 696 mmHg 89%
    04:00 +7°C° 0 mm 1 mps 696 mmHg 90%
    05:00 +7°C° 0 mm 2 mps 696 mmHg 85%
    06:00 +8°C° 0 mm 2 mps 697 mmHg 79%
    07:00 +8°C° 0 mm 2 mps 697 mmHg 74%
    08:00 +9°C° 0.1 mm 3 mps 696 mmHg 67%
    09:00 +10°C° 0.1 mm 3 mps 696 mmHg 61%
    10:00 +12°C° 0.1 mm 3 mps 696 mmHg 54%
    11:00 +10°C° 0.9 mm 4 mps 695 mmHg 58%
    12:00 +8°C° 0.9 mm 5 mps 695 mmHg 63%
    13:00 +7°C° 0.9 mm 5 mps 695 mmHg 67%
    14:00 +7°C° 1 mm 5 mps 695 mmHg 67%
    15:00 +6°C° 1 mm 5 mps 696 mmHg 67%
    16:00 +6°C° 1 mm 5 mps 697 mmHg 67%
    17:00 +5°C° 0.1 mm 4 mps 697 mmHg 68%
    18:00 +5°C° 0.1 mm 3 mps 698 mmHg 68%
    19:00 +5°C° 0.1 mm 2 mps 699 mmHg 69%
    20:00 +5°C° 0 mm 1 mps 699 mmHg 72%
    21:00 +4°C° 0 mm 1 mps 699 mmHg 75%
    22:00 +3°C° 0 mm 1 mps 699 mmHg 79%
    23:00 +3°C° 0 mm 1 mps 699 mmHg 80%
    Show more